KAUMKGYR

Guest
Details From KAUM - AUSTIN MUNI
To KGYR - Phoenix Goodyear
Flight Number -
Tags decoded
Created
Modified
Stats Distance 1,123 nm / 2,079 km
Max Altitude 0 ft / 0 m
Waypoints 9
Social Downloads 1
Likes 0
Share VATSIM

Download

Looking for another format? Having issues loading an existing format? Contact us
Advertisement - Login to hide

Notes

Requested: KAUM TXC JAKAR JCOBS SWIRL POURS SLIMY PXR KGYR

Route

KAUM TXC JAKAR JCOBS SWIRL POURS SLIMY PXR KGYR

ID Type Via Altitude Latitude Longitude Leg Dist Tot Dist Heading (true) Name
O KAUM APT - 0 ft / 0 m 43.66263˚ -92.93293˚ - 0 nm - AUSTIN MUNI
TXC VOR - 0 ft / 0 m 39.69831˚ -103.21494˚ 518 nm 518 nm 246° / 239° THURMAN VORTAC
JAKAR FIX - 0 ft / 0 m 34.60404˚ -111.82581˚ 512 nm 1031 nm 236° / 231° -
JCOBS FIX - 0 ft / 0 m 34.30005˚ -111.91545˚ 18 nm 1050 nm 194° / 194° -
SWIRL FIX - 0 ft / 0 m 34.19997˚ -111.92183˚ 6 nm 1056 nm 183° / 183° -
POURS FIX - 0 ft / 0 m 34.06663˚ -111.93018˚ 8 nm 1064 nm 183° / 183° -
SLIMY FIX - 0 ft / 0 m 33.84989˚ -111.94403˚ 13 nm 1077 nm 183° / 183° -
PXR VOR - 0 ft / 0 m 33.43303˚ -111.97019˚ 25 nm 1102 nm 183° / 183° PHOENIX VORTAC
O KGYR APT - 0 ft / 0 m 33.42372˚ -112.37446˚ 20 nm 1122 nm 269° / 268° Phoenix Goodyear

Altitude Profile

Advertisement - Login to hide

Weather


0- 5 10 15 20 25 30 35+ Temperature / ° C

Clouds and Precipitation
Forecast for 2017-12-17 00:00 UTC. Updated 2 hours ago

Ground ~20,000 ft ~40,000 ft Winds

KAUM

Details ICAO KAUM
Name AUSTIN MUNI
Region United States
Timezone America/Chicago (UTC-6.0)
Stats Elevation 1,233 ft / 376 m (AMSL)
Location 43.662633° -92.932931°
Runways 1
Magnetic Variation 0.079° E

METAR

KAUM 162035Z AUTO 05004KT 10SM CLR 03/M02 A2987 RMK AO2

Decode

TAF

Not found

Departure Runways

ID Width Length Bearing (true) Bearing (mag) Surface Threshold Offset Overrun Length
17 100 ft / 30 m 5,806 ft / 1,770 m 172.16° 172.08° Concrete 0 ft / 0 m 0 ft / 0 m
35 100 ft / 30 m 5,806 ft / 1,770 m 352.16° 352.08° Concrete 0 ft / 0 m 0 ft / 0 m

KGYR

Details ICAO KGYR
Name Phoenix Goodyear
Region United States
Timezone America/Phoenix (UTC-7.0)
Stats Elevation 968 ft / 295 m (AMSL)
Location 33.423725° -112.374458°
Runways 1
Magnetic Variation 10.423° E

METAR

KGYR 161947Z 06005KT 10SM SCT150 BKN200 BKN250 16/M07 A2977

Decode

TAF

Not found

Destination Runways

ID Width Length Bearing (true) Bearing (mag) Surface Threshold Offset Overrun Length
03 151 ft / 46 m 8,509 ft / 2,594 m 39.46° 29.04° Asphalt 0 ft / 0 m 200 ft / 61 m
21 151 ft / 46 m 8,509 ft / 2,594 m 219.46° 209.04° Asphalt 2,100 ft / 640 m 0 ft / 0 m

Popular Alternatives